Terminal Aerodrome Forecast
Issued by NWS

Home | Current Version | Previous Version | Text Only | Print | Product List | Glossary On
Versions: 1 2 3 4 5 6 7 8 9 10 11 12
893
FTUS44 KMAF 120520
TAFFST
TAF
KFST 120520Z 1206/1306 22008KT P6SM SKC
     FM130000 09010KT P6SM SKC=

USA.gov is the U.S. government's official web portal to all federal, state and local government web resources and services.